TimeCEST,TemperatureF,Dew PointF,Humidity,Sea Level PressureIn,VisibilityMPH,Wind Direction,Wind SpeedMPH,Gust SpeedMPH,PrecipitationIn,Events,Conditions,WindDirDegrees,DateUTC
12:00 AM,84.2,50.0,30,29.89,-9999.0,West,13.8,-,N/A,,Clear,260,2013-07-29 22:00:00
12:30 AM,82.4,51.8,35,29.89,-9999.0,WSW,11.5,-,N/A,,Clear,250,2013-07-29 22:30:00
1:00 AM,80.6,51.8,37,29.89,6.2,SW,8.1,-,N/A,,Partly Cloudy,230,2013-07-29 23:00:00
1:30 AM,78.8,51.8,39,29.89,6.2,SW,8.1,-,N/A,,Partly Cloudy,230,2013-07-29 23:30:00
2:00 AM,80.6,53.6,39,29.92,6.2,WSW,17.3,-,N/A,,Mostly Cloudy,250,2013-07-30 00:00:00
2:30 AM,78.8,57.2,47,29.89,6.2,West,17.3,-,N/A,,Mostly Cloudy,280,2013-07-30 00:30:00
3:00 AM,78.8,60.8,54,29.92,6.2,West,13.8,-,N/A,,Mostly Cloudy,270,2013-07-30 01:00:00
3:30 AM,75.2,64.4,69,29.92,6.2,WNW,11.5,-,N/A,Rain,Light Rain Showers,290,2013-07-30 01:30:00
4:00 AM,71.6,68.0,88,29.92,6.2,WNW,17.3,-,N/A,Rain,Light Rain Showers,290,2013-07-30 02:00:00
4:30 AM,71.6,68.0,88,29.89,6.2,NNW,10.4,-,N/A,Rain,Light Rain Showers,330,2013-07-30 02:30:00
5:00 AM,71.6,68.0,88,29.92,6.2,West,15.0,-,N/A,,Mostly Cloudy,280,2013-07-30 03:00:00
5:30 AM,69.8,66.2,88,29.92,6.2,WNW,13.8,-,N/A,,Mostly Cloudy,290,2013-07-30 03:30:00
6:00 AM,69.8,64.4,83,29.95,6.2,WNW,15.0,-,N/A,,Mostly Cloudy,290,2013-07-30 04:00:00
6:30 AM,69.8,64.4,83,29.95,6.2,WNW,15.0,-,N/A,,Mostly Cloudy,290,2013-07-30 04:30:00
7:00 AM,69.8,62.6,78,29.95,6.2,West,11.5,-,N/A,,Mostly Cloudy,280,2013-07-30 05:00:00
7:30 AM,69.8,62.6,78,29.95,6.2,West,17.3,-,N/A,,Scattered Clouds,280,2013-07-30 05:30:00
8:00 AM,69.8,62.6,78,29.95,6.2,WNW,18.4,-,N/A,,Scattered Clouds,290,2013-07-30 06:00:00
8:30 AM,71.6,62.6,73,29.95,6.2,WNW,18.4,-,N/A,,Scattered Clouds,300,2013-07-30 06:30:00
9:00 AM,71.6,60.8,69,29.95,6.2,WNW,17.3,-,N/A,,Scattered Clouds,300,2013-07-30 07:00:00
9:30 AM,73.4,60.8,65,29.98,6.2,WNW,21.9,-,N/A,,Scattered Clouds,300,2013-07-30 07:30:00
10:00 AM,75.2,60.8,61,29.95,6.2,WNW,23.0,-,N/A,,Scattered Clouds,290,2013-07-30 08:00:00
10:30 AM,77.0,60.8,57,29.98,6.2,West,23.0,-,N/A,,Scattered Clouds,280,2013-07-30 08:30:00
11:00 AM,78.8,60.8,54,29.98,6.2,West,24.2,-,N/A,,Scattered Clouds,280,2013-07-30 09:00:00
11:30 AM,78.8,60.8,54,29.98,6.2,WNW,23.0,-,N/A,,Scattered Clouds,290,2013-07-30 09:30:00
12:00 PM,77.0,59.0,54,29.98,6.2,West,24.2,-,N/A,,Scattered Clouds,280,2013-07-30 10:00:00
12:30 PM,77.0,59.0,54,29.98,6.2,WNW,26.5,-,N/A,,Scattered Clouds,290,2013-07-30 10:30:00
1:00 PM,75.2,57.2,53,29.98,6.2,WNW,27.6,-,N/A,,Scattered Clouds,290,2013-07-30 11:00:00
1:30 PM,75.2,57.2,53,29.98,6.2,WNW,21.9,-,N/A,,Scattered Clouds,290,2013-07-30 11:30:00
2:00 PM,77.0,59.0,54,29.98,6.2,West,20.7,-,N/A,,Scattered Clouds,280,2013-07-30 12:00:00
2:30 PM,78.8,57.2,47,29.98,6.2,WNW,21.9,-,N/A,,Scattered Clouds,300,2013-07-30 12:30:00
3:00 PM,78.8,57.2,47,29.98,6.2,WNW,23.0,-,N/A,,Partly Cloudy,290,2013-07-30 13:00:00
3:30 PM,78.8,57.2,47,29.98,6.2,WNW,26.5,38.0,N/A,,Partly Cloudy,300,2013-07-30 13:30:00
4:00 PM,78.8,57.2,47,29.98,6.2,WNW,24.2,-,N/A,,Partly Cloudy,300,2013-07-30 14:00:00
4:30 PM,78.8,53.6,42,29.98,6.2,NW,26.5,-,N/A,,Partly Cloudy,310,2013-07-30 14:30:00
5:00 PM,78.8,53.6,42,29.98,-9999.0,NW,26.5,-,N/A,,Clear,310,2013-07-30 15:00:00
5:30 PM,78.8,53.6,42,29.98,-9999.0,WNW,26.5,-,N/A,,Clear,300,2013-07-30 15:30:00
6:00 PM,78.8,55.4,44,29.98,6.2,WNW,25.3,38.0,N/A,,Partly Cloudy,300,2013-07-30 16:00:00
6:30 PM,77.0,55.4,47,29.98,-9999.0,WNW,23.0,-,N/A,,Clear,300,2013-07-30 16:30:00
7:00 PM,77.0,55.4,47,29.98,-9999.0,NW,20.7,-,N/A,,Clear,310,2013-07-30 17:00:00
7:30 PM,77.0,57.2,50,29.98,-9999.0,NW,16.1,-,N/A,,Clear,310,2013-07-30 17:30:00
8:00 PM,75.2,55.4,50,29.98,-9999.0,NW,16.1,-,N/A,,Clear,310,2013-07-30 18:00:00
8:30 PM,75.2,53.6,47,30.01,-9999.0,WNW,17.3,-,N/A,,Clear,300,2013-07-30 18:30:00
9:00 PM,73.4,53.6,50,30.01,-9999.0,NW,11.5,-,N/A,,Clear,310,2013-07-30 19:00:00
9:30 PM,73.4,53.6,50,30.01,-9999.0,NW,6.9,-,N/A,,Clear,320,2013-07-30 19:30:00
10:00 PM,73.4,53.6,50,30.01,-9999.0,NW,8.1,-,N/A,,Clear,320,2013-07-30 20:00:00
10:30 PM,73.4,53.6,50,30.04,-9999.0,NW,9.2,-,N/A,,Clear,320,2013-07-30 20:30:00
11:00 PM,71.6,53.6,53,30.04,-9999.0,NW,9.2,-,N/A,,Clear,320,2013-07-30 21:00:00
11:30 PM,69.8,53.6,56,30.04,-9999.0,NW,10.4,-,N/A,,Clear,320,2013-07-30 21:30:00